Regional Weather Roundup
Issued by NWS

Home | Current Version | Previous Version | Graphics & Text | Print | Product List | Glossary On
Versions: 1 2 3 4 5 6 7 8 9 10 11 12 13 14 15 16 17 18 19 20 21 22 23 24 25 26 27 28 29 30 31 32 33 34 35 36 37 38 39 40 41 42 43 44 45 46 47 48 49 50
000
ASUS43 KLOT 010506
RWRIL

ILLINOIS REGIONAL WEATHER ROUNDUP
NATIONAL WEATHER SERVICE CHICAGO/ROMEOVILLE IL
1200 AM CDT FRI AUG 01 2014

NOTE: "FAIR" INDICATES FEW OR NO CLOUDS BELOW 12,000 FEET WITH NO
SIGNIFICANT WEATHER AND/OR OBSTRUCTIONS TO VISIBILITY.

* THESE STATIONS ARE NOT UNDER NWS QUALITY CONTROL. THEY ALSO MAY NOT
  REPORT WEATHER SUCH AS PRECIPITATION OR FOG.

ILZ001-002-007-009-015-016-024-010600-
NORTHWEST ILLINOIS

CITY           SKY/WX    TMP DP  RH WIND       PRES   REMARKS
MOLINE         CLEAR     65  61  87 CALM      30.05S
STERLING*      CLEAR     63  57  82 CALM      30.06S
SAVANNA*       PTCLDY    64  60  86 SE5       30.04S
$$

ILZ003-004-008-010-011-017-018-010600-
NORTH CENTRAL ILLINOIS

CITY           SKY/WX    TMP DP  RH WIND       PRES   REMARKS
ROCKFORD       CLEAR     64  58  80 S3        30.06S
FREEPORT*      CLEAR     64  59  85 SW5       30.07S
ROCHELLE*      CLEAR     58  56  92 CALM      30.06S
DE KALB*       CLEAR     66  58  75 SW5       30.07S
PERU*          CLOUDY    68  63  84 W6        30.07R
$$

ILZ005-006-012>014-019>023-010600-
NORTHEAST ILLINOIS

CITY           SKY/WX    TMP DP  RH WIND       PRES   REMARKS
CHICAGO-OHARE  CLEAR     68  57  68 SW6       30.04S
CHICAGO-MIDWAY CLEAR     72  62  71 SW6       30.04S
AURORA         CLEAR     62  58  86 CALM      30.06S
LANSING*       CLEAR     64  62  91 CALM      30.05S
JOLIET*        CLEAR     62  60  93 CALM      30.07R FOG
WAUKEGAN       CLEAR     65  57  75 SW3       30.04R
DUPAGE AIRPORT CLEAR     65  60  84 S3        30.05R
KANKAKEE*      CLEAR     63  61  93 CALM      30.07S
WHEELING       CLEAR     68  58  70 CALM      30.06R
MORRIS*        CLEAR     65  65  99 CALM      30.05S
ROMEOVILLE*    CLEAR     64  59  85 SW5       30.06S
NORTHERLY ISL    N/A     74  60  61 SW3         N/A
$$

LMZ740>746-010600-
SOUTHERN LAKE MICHIGAN

STATION/POSITION SKY/WX   TEMP    WIND        PRES    VSBY  WAVE
                          AIR SEA DIR/SP/G                  HT/PER
                          (F)     (DEG/KT/KT) (MB)    (MI)  (FT/S)
SOUTHERN BUOY              66 63  230/  8/  8 1016.8R         0
WAUKEGAN HARBOR            71     260/  7/  8   N/A
HARRISON CRIB              74     240/  8/ 10   N/A
BURNHAM HARBOR             74     230/  2/  6   N/A
CALUMET HARBOR             72     240/  2/  4 1016.3R
MICHIGAN CITY              71     180/  8/  9   N/A
MICHIGAN CITY 6N           71 70  210/  6/  8   N/A           1/ 2
ST. JOSEPH                 71 69  190/  8/ 12   N/A           1/ 2
$$

ILZ025>027-034>036-040-047-049-050-058-095>099-010600-
WEST-CENTRAL ILLINOIS

CITY           SKY/WX    TMP DP  RH WIND       PRES   REMARKS
QUINCY         CLEAR     67  60  78 SE3       30.06S
GALESBURG*     PTCLDY    62  61  95 CALM      30.07R
MACOMB*        PTCLDY    60  59  96 CALM      30.08S
JACKSONVILLE*  CLEAR     64  61  90 CALM      30.08R
PITTSFIELD*    CLEAR     64  61  90 CALM      30.08S
$$

ILZ028>032-037-038-041>044-048-051>054-059>061-010600-
CENTRAL ILLINOIS

CITY           SKY/WX    TMP DP  RH WIND       PRES   REMARKS
PONTIAC        CLEAR     63  63 100 S3        30.07S
DECATUR        CLEAR     62  58  86 CALM      30.08S
PEORIA         CLEAR     68  61  78 CALM      30.07R
LACON*         CLEAR     64  60  88 CALM      30.06R
LINCOLN*       CLEAR     64  61  90 CALM      30.05S
SPRINGFIELD    CLEAR     64  61  90 CALM      30.07S
TAYLORVILLE    PTCLDY    63  59  88 SE3       30.08R
$$

ILZ033-039-045-046-055>057-062-063-010600-
EAST-CENTRAL ILLINOIS

CITY           SKY/WX    TMP DP  RH WIND       PRES   REMARKS
CHAMPAIGN      CLEAR     63  60  90 SE5       30.08F
DANVILLE*      CLEAR     59  58  97 CALM      30.06S
RANTOUL*       CLEAR     65  62  87 CALM      30.09S
MATTOON        CLOUDY    66  62  87 CALM      30.08R
PARIS*         CLEAR     60  59  97 CALM      30.10S FOG
$$

ILZ079-100>102-010600-
SOUTHWEST ILLINOIS

CITY           SKY/WX    TMP DP  RH WIND       PRES   REMARKS
ALTON          PTCLDY    65  65 100 CALM      30.07R
BELLEVILLE     CLEAR     66  65  96 CALM      30.06S
CAHOKIA*       CLEAR     68  63  84 S3        30.07R
SPARTA*        CLEAR     68  64  88 CALM      30.08S
$$

ILZ064>066-069>071-074>076-080>082-084>086-088>090-092>094-010600-
SOUTH-CENTRAL ILLINOIS

CITY           SKY/WX    TMP DP  RH WIND       PRES   REMARKS
CARBONDALE     CLEAR     64  61  90 SE3       30.08S
CAIRO*         FOG       64  61  89 CALM      30.08S VSB 1
EFFINGHAM*     PTCLDY    66  60  79 SE3       30.09R
MARION         CLEAR     68  64  88 CALM      30.09S
MT. VERNON     CLEAR     63  57  82 CALM      30.09S
CENTRALIA*     CLEAR     64  61  91 CALM      30.08R
SALEM*         CLEAR     67  62  84 CALM      30.09R
METROPOLIS*    CLEAR     62  60  93 CALM      30.08S FOG
$$

ILZ067-068-072-073-078-083-087-091-010600-
SOUTHEAST ILLINOIS

CITY           SKY/WX    TMP DP  RH WIND       PRES   REMARKS
LAWRENCEVILLE  PTCLDY    65  63  93 CALM      30.09R
FAIRFIELD*     CLEAR     64  63  94 CALM      30.08S
HARRISBURG*    CLEAR     66  65  99 CALM      30.09S
ROBINSON*      FOG       61  61  98 CALM      30.10R VSB 1/2
CARMI*         PTCLDY    64  63  94 CALM      30.07S
$$

ABBREVIATIONS USED IN REMARKS
   TC - TEMPERATURE IN CELSIUS
  WCI - WIND CHILL INDEX
   HX - HEAT INDEX
  VSB - VISIBILITY
$$



USA.gov is the U.S. government's official web portal to all federal, state and local government web resources and services.